Location: Unspecified
(57.6483°N, 3.3184°W)
Time: 19:07:45
(UTC+01:00)

VELOX 1 - Visible Passes

Search period start: 14 May 2021 00:00
Search period end: 24 May 2021 00:00
Orbit: 627 x 643 km, 98.3° (Epoch: 14 May)

Date Brightness Start Highest point End Pass type
(mag) Time Alt. Az. Time Alt. Az. Time Alt. Az.
14 May ? 01:33:50 10° NE 01:34:29 10° NE 01:35:08 10° NNE visible
14 May ? 03:05:40 10° SE 03:09:46 38° ENE 03:13:52 10° N visible
15 May ? 01:53:52 10° ENE 01:56:03 14° NE 01:58:15 10° NNE visible
15 May ? 03:27:16 10° SE 03:31:36 55° ENE 03:35:55 10° N visible
16 May ? 02:14:42 10° E 02:17:41 18° NE 02:20:40 10° N visible
16 May ? 03:49:02 10° SSE 03:53:28 80° ENE 03:57:54 10° NNW visible
17 May ? 02:35:49 10° ESE 02:39:22 24° NE 02:42:55 10° N visible
18 May ? 02:57:09 10° ESE 03:01:06 33° ENE 03:05:03 10° N visible
19 May ? 01:45:46 10° ENE 01:47:27 12° NE 01:49:08 10° NNE visible
19 May ? 03:18:40 10° SE 03:22:54 46° ENE 03:27:08 10° N visible
20 May ? 02:06:24 10° E 02:09:04 16° NE 02:11:43 10° N visible
20 May ? 03:40:21 10° SSE 03:44:44 68° ENE 03:49:08 10° NNW visible
21 May ? 02:27:24 10° ESE 02:30:43 21° NE 02:34:02 10° N visible
22 May ? 02:48:39 10° ESE 02:52:25 28° ENE 02:56:12 10° N visible
23 May ? 01:37:57 10° NE 01:38:51 11° NE 01:39:46 10° NNE visible
23 May ? 03:10:04 10° SE 03:14:11 40° ENE 03:18:18 10° N visible
